Regional Weather Roundup
Issued by NWS

Home | Current Version | Previous Version | Text Only | Print | Product List | Glossary On
Versions: 1 2 3 4 5 6 7 8 9 10 11 12 13 14 15 16 17 18 19 20 21 22 23 24 25 26 27 28 29 30 31 32 33 34 35 36 37 38 39 40 41 42 43 44 45 46 47 48 49 50
000
ASUS45 KBOU 061407
RWRCO

WEATHER ROUNDUP FOR COLORADO
NATIONAL WEATHER SERVICE DENVER/BOULDER CO
800 AM MDT FRI MAY 06 2016

NOTE: "FAIR" INDICATES FEW OR NO CLOUDS BELOW 12000 FEET WITH NO
SIGNIFICANT WEATHER AND/OR OBSTRUCTIONS TO VISIBILITY.

COZ001>005-013-030-031-061500-
...NORTHWEST COLORADO...

CITY           SKY/WX    TMP DP  RH WIND       PRES   REMARKS
CRAIG          FAIR      49  39  68 CALM      30.04S
HAYDEN         FAIR      52  34  50 SE9       30.05F
MEEKER         PTSUNNY   54  38  54 CALM      30.02F
MOUNT WERNER   NOT AVBL
STEAMBOAT SPGS CLOUDY    50  33  52 N7        30.07F
WALDEN         FAIR      41  32  70 E5        30.17S
$$

COZ006>008-011-061500-
...WEST CENTRAL VALLEYS...

CITY           SKY/WX    TMP DP  RH WIND       PRES   REMARKS
GRAND JUNCTION PTSUNNY   61  40  45 SE9       29.90R
MONTROSE       FAIR      65  36  34 E12       29.98S
EAGLE          SUNNY     48  32  53 CALM      30.10R
RIFLE          PTSUNNY   56  38  50 S10       30.04R
DELTA          NOT AVBL
NUCLA          NOT AVBL
$$

COZ017>023-064>068-061500-
...SOUTHWEST COLORADO...

CITY           SKY/WX    TMP DP  RH WIND       PRES   REMARKS
DURANGO        FAIR      57  35  43 SE8       30.04R
CORTEZ         FAIR      62  32  32 SW10      29.99R
PAGOSA SPRINGS CLOUDY    54  34  46 CALM      30.14S
TELLURIDE      FAIR      50  37  62 SE9       30.14S
WOLF CREEK PAS CLOUDY    36  28  75 S13G25    30.36S
$$

COZ009-010-012-014-032>034-037-058>063-061500-
...CENTRAL COLORADO...

CITY           SKY/WX    TMP DP  RH WIND       PRES   REMARKS
ASPEN          FAIR      55  30  38 CALM      30.10S
BUENA VISTA    FAIR      48  33  55 NW5       30.18F
COPPER MTN     NOT AVBL
BERTHOUD PASS  FAIR      36  28  75 SE10G17   30.39F
COTTONWOOD PAS FAIR      50  23  34 E8        30.26F
GUNNISON       PTSUNNY   43  34  70 N7        30.20S
KREMMLING      FAIR      46  32  57 CALM      30.14S
LEADVILLE      FAIR      42  28  57 W5        30.25S
MONARCH PASS   PTSUNNY   41  23  48 S14G22    30.47S
SALIDA         PTSUNNY   49  33  54 NW3       30.24S
SUNLIGHT       CLOUDY    45  28  53 S6        30.30R
WILKERSON PASS FAIR      43  23  45 SW6       30.37S
$$

COZ069>075-061500-
...SAN LUIS VALLEY/SANGRE DE CRISTO MOUNTAINS...

CITY           SKY/WX    TMP DP  RH WIND       PRES   REMARKS
ALAMOSA        LGT RAIN  48  35  60 E10       30.16S
LA VETA PASS   PTSUNNY   46  23  39 S7        30.29R
SAGUACHE       CLOUDY    46  32  57 NW7       30.21R
$$

COZ035-036-038>040-061500-
...NORTHERN COLORADO FRONT RANGE...

CITY           SKY/WX    TMP DP  RH WIND       PRES   REMARKS
DENVER INTL AP PTSUNNY   57  40  52 W6        30.00R
DMNS CITY PARK   N/A     59  41  50 W5        30.00R
AURORA         FAIR      57  40  52 SW9       30.02S
FRONT RANGE AP PTSUNNY   57  39  51 SW8       30.00
ERIE MUNI ARPT FAIR      55  45  69 CALM      29.99F
BOULDER MUN AP FAIR      57  37  47 CALM      29.99F
CENTENNIAL     PTSUNNY   58  38  47 W3        30.02S
BROOMFIELD     PTSUNNY   57  39  51 NW7       30.01S
FORT COLLINS   FAIR      54  45  71 N3        30.00S
LONGMONT       FAIR      59  44  58 CALM      30.00F
$$

COZ041-046-047-076>085-087-088-061500-
...PIKES PEAK/PALMER DIVIDE AND SOUTHERN FOOTHILLS...

CITY           SKY/WX    TMP DP  RH WIND       PRES   REMARKS
COLO. SPRINGS  FAIR      58  36  43 SE5       30.07S
A. F. ACADEMY  MOSUNNY   54  39  58 N6        30.08R
SCHRIEVER AFB  NOT AVBL
ELLICOTT       FAIR     N/A N/A N/A CALM      30.05R
FALCON         NOT AVBL
FORT CARSON    FAIR      56  41  56 N3        30.04S
LIMON          FAIR      49  46  90 CALM      30.03S
MONUMENT HILL  FAIR      59  36  41 SW8       30.10S
TRINIDAD       FAIR      66  26  22 SW26G33   30.05S
$$

COZ042>045-048>051-090-091-061500-
...NORTHEAST COLORADO...

CITY           SKY/WX    TMP DP  RH WIND       PRES   REMARKS
GREELEY ARPT   FAIR      54  46  76 N5        29.99R
AKRON          FAIR      53  46  77 S7        29.99R
BURLINGTON     FAIR      55  46  71 S20       29.99F
WRAY           NOT AVBL
STERLING       FAIR      57  48  72 S8        29.96R
HOLYOKE        NOT AVBL
FORT MORGAN    FAIR      54  46  73 CALM      29.98S
$$

COZ086-089-092>099-061500-
...SOUTHEAST COLORADO...

CITY           SKY/WX    TMP DP  RH WIND       PRES   REMARKS
PUEBLO         FAIR      58  44  60 CALM      30.01S
LA JUNTA       FAIR      57  44  62 CALM      30.00R
LAMAR          FAIR      58  46  64 CALM      29.98R
SPRINGFIELD      N/A     68  33  27 SW15G25   30.03R
$$



USA.gov is the U.S. government's official web portal to all federal, state and local government web resources and services.